Tracking 19283 objects as of 18-Nov-2018
HD Live streaming from Space Station
objects crossing your sky now

COSMOS 994

Track COSMOS 994 now!
10-day predictions
COSMOS 994 is classified as:


NORAD ID: 10731
Int'l Code: 1978-028A
Perigee: 977.4 km
Apogee: 1,013.1 km
Inclination: 82.9 °
Period: 104.9 minutes
Semi major axis: 7366 km
RCS: 2.0708 m2 (large)
Launch date: March 15, 1978
Source: Commonwealth of Independent States (former USSR) (CIS)
Launch site: PLESETSK MISSILE AND SPACE COMPLEX (PKMTR)
aabbcc
Your satellite tracking list
Your tracking list is empty




NASA's NSSDC Master Catalog

Two Line Element Set (TLE):
1 10731U 78028A   18321.36943248 +.00000034 +00000-0 +20144-4 0  9993
2 10731 082.9315 263.1229 0024267 048.1375 067.0132 13.73198206037780
Source of the keplerian elements: AFSPC